This is the latest recevied weather packets stored in our database for station/object N7IGG. If no packets are shown the sender has not sent any weather packets the latest 10 day(s).
| Time | Temp. | Humidity | Pressure | Rain* | Wind** | Luminosity | Snow |
|---|---|---|---|---|---|---|---|
| 1777518368 | 16.67° C | 61% | 1022 hPa | 0 mm | - | 5 W/m² | - |
| 1777518063 | 17.22° C | 60% | 1021.9 hPa | 0 mm | - | 10 W/m² | - |
| 1777517759 | 17.22° C | 60% | 1021.8 hPa | 0 mm | - | 15 W/m² | - |
| 1777517456 | 17.22° C | 59% | 1021.9 hPa | 0 mm | - | 20 W/m² | - |
| 1777517155 | 17.22° C | 60% | 1021.9 hPa | 0 mm | - | 23 W/m² | - |
| 1777516852 | 17.78° C | 61% | 1022.2 hPa | 0 mm | - | 28 W/m² | - |
| 1777516548 | 17.78° C | 61% | 1022.3 hPa | 0 mm | - | 33 W/m² | - |
| 1777516244 | 17.78° C | 60% | 1022 hPa | 0 mm | - | 43 W/m² | - |
| 1777515941 | 17.78° C | 60% | 1022.1 hPa | 0 mm | - | 59 W/m² | - |
| 1777515638 | 17.22° C | 60% | 1022.2 hPa | 0 mm | - | 70 W/m² | - |
| 1777515335 | 17.22° C | 63% | 1022.1 hPa | 0 mm | - | 75 W/m² | - |
| 1777515031 | 17.78° C | 62% | 1022.1 hPa | 0 mm | - | 92 W/m² | - |
| 1777514727 | 17.78° C | 62% | 1022.1 hPa | 0 mm | - | 99 W/m² | - |
| 1777514425 | 17.78° C | 61% | 1022.1 hPa | 0 mm | - | 113 W/m² | - |
| 1777514121 | 17.78° C | 60% | 1022.2 hPa | 0 mm | - | 127 W/m² | - |
| 1777513818 | 17.78° C | 58% | 1022.3 hPa | 0 mm | - | 131 W/m² | - |
| 1777513515 | 17.78° C | 57% | 1022 hPa | 0 mm | - | 146 W/m² | - |
| 1777513212 | 17.78° C | 57% | 1022.3 hPa | 0 mm | - | 158 W/m² | - |
| 1777512908 | 17.78° C | 57% | 1022.1 hPa | 0 mm | - | 164 W/m² | - |
| 1777512611 | 17.78° C | 58% | 1022.3 hPa | 0 mm | - | 172 W/m² | - |
| 1777512302 | 17.78° C | 56% | 1022.2 hPa | 0 mm | - | 201 W/m² | - |
| 1777511998 | 17.78° C | 57% | 1022.2 hPa | 0 mm | - | 221 W/m² | - |
| 1777511696 | 18.33° C | 56% | 1022.3 hPa | 0 mm | - | 239 W/m² | - |
| 1777511394 | 18.33° C | 57% | 1022.4 hPa | 0 mm | - | 234 W/m² | - |
| 1777511089 | 18.33° C | 56% | 1022.6 hPa | 0 mm | - | 187 W/m² | - |
* Rain latest hour (hover to see other rain measurements)
** Current wind speed in m/s (hover to see current wind gust speed)